LB418 SEQM-SECO

Flight info

Callsign LB418
Flight time 0h 28m
Altitude 19000
Route SIMOG1B SIMOG SIMOG1E
Aircraft PC12/L-SDFGRWY/S

Departure

Time 2026-04-22 16:39
Airport Mariscal Sucre International Airport (SEQM)

Arrival

Time 2026-04-22 17:08
Airport Francisco De Orellana Airport (SECO)
Time Latitude Longitude Altitude Speed Heading
2026-04-22 16:03 -0.13716 -78.35661 7891 ft 0 kts 239°
2026-04-22 16:24 -0.13717 -78.35662 7909 ft 0 kts 202°
2026-04-22 16:29 -0.13723 -78.35647 7892 ft 0 kts 202°
2026-04-22 16:30 -0.13726 -78.35648 7891 ft 0 kts 201°
2026-04-22 16:30 -0.13735 -78.35645 7892 ft 5 kts 119°
2026-04-22 16:30 -0.13778 -78.35599 7893 ft 10 kts 91°
2026-04-22 16:30 -0.13863 -78.35553 7894 ft 24 kts 178°
2026-04-22 16:31 -0.14063 -78.35543 7902 ft 29 kts 177°
2026-04-22 16:31 -0.14230 -78.35523 7913 ft 18 kts 143°
2026-04-22 16:31 -0.14252 -78.35494 7912 ft 0 kts 110°
2026-04-22 16:37 -0.14253 -78.35492 7912 ft 4 kts 110°
2026-04-22 16:37 -0.14248 -78.35394 7910 ft 18 kts 73°
2026-04-22 16:37 -0.14208 -78.35369 7907 ft 0 kts 357°
2026-04-22 16:38 -0.14204 -78.35369 7907 ft 6 kts 357°
2026-04-22 16:39 -0.13946 -78.35380 7898 ft 68 kts 358°
2026-04-22 16:39 -0.13304 -78.35407 7914 ft 111 kts 358°
2026-04-22 16:39 -0.12413 -78.35443 8056 ft 143 kts 356°
2026-04-22 16:39 -0.11423 -78.35467 8704 ft 145 kts 356°
2026-04-22 16:40 -0.10299 -78.35500 8824 ft 178 kts 357°
2026-04-22 16:40 -0.09119 -78.35515 9607 ft 161 kts 357°
2026-04-22 16:40 -0.06896 -78.35471 10651 ft 164 kts
2026-04-22 16:41 -0.05861 -78.34964 11140 ft 172 kts 35°
2026-04-22 16:41 -0.05078 -78.34051 11810 ft 173 kts 51°
2026-04-22 16:41 -0.04365 -78.33078 12481 ft 173 kts 52°
2026-04-22 16:41 -0.03660 -78.32097 13015 ft 175 kts 53°
2026-04-22 16:42 -0.02953 -78.31094 13541 ft 179 kts 52°
2026-04-22 16:42 -0.02227 -78.30064 14161 ft 183 kts 52°
2026-04-22 16:42 -0.01496 -78.29025 14712 ft 186 kts 53°
2026-04-22 16:42 -0.00752 -78.27968 15299 ft 186 kts 53°
2026-04-22 16:43 0.00005 -78.26896 15790 ft 194 kts 53°
2026-04-22 16:43 0.00821 -78.25736 15967 ft 216 kts 53°
2026-04-22 16:43 0.01735 -78.24435 15976 ft 240 kts 54°
2026-04-22 16:43 0.02723 -78.23030 15975 ft 253 kts 54°
2026-04-22 16:44 0.03752 -78.21569 15966 ft 260 kts 54°
2026-04-22 16:44 0.04801 -78.20081 15970 ft 263 kts 54°
2026-04-22 16:44 0.05844 -78.18600 15968 ft 265 kts 54°
2026-04-22 16:44 0.06905 -78.17095 15970 ft 266 kts 54°
2026-04-22 16:45 0.07972 -78.15581 15964 ft 266 kts 54°
2026-04-22 16:45 0.09037 -78.14069 15966 ft 266 kts 54°
2026-04-22 16:45 0.10101 -78.12559 15967 ft 266 kts 54°
2026-04-22 16:45 0.11168 -78.11044 15964 ft 266 kts 54°
2026-04-22 16:46 0.12233 -78.09532 15946 ft 266 kts 54°
2026-04-22 16:46 0.13300 -78.08019 15942 ft 267 kts 54°
2026-04-22 16:46 0.14223 -78.06447 15934 ft 267 kts 68°
2026-04-22 16:46 0.14675 -78.04650 15934 ft 267 kts 84°
2026-04-22 16:47 0.14709 -78.02798 15935 ft 267 kts 91°
2026-04-22 16:47 0.14708 -78.00942 15937 ft 267 kts 90°
2026-04-22 16:47 0.14713 -77.99088 15940 ft 266 kts 90°
2026-04-22 16:47 0.14718 -77.97239 15938 ft 266 kts 90°
2026-04-22 16:48 0.14720 -77.95394 15909 ft 267 kts 90°
2026-04-22 16:48 0.14723 -77.93534 15909 ft 269 kts 90°
2026-04-22 16:48 0.14727 -77.91693 15905 ft 268 kts 90°
2026-04-22 16:48 0.14731 -77.89833 15905 ft 268 kts 90°
2026-04-22 16:49 0.14734 -77.87964 15903 ft 269 kts 90°
2026-04-22 16:49 0.14738 -77.86096 15906 ft 269 kts 90°
2026-04-22 16:49 0.14741 -77.84230 15906 ft 268 kts 90°
2026-04-22 16:49 0.14745 -77.82369 15902 ft 268 kts 90°
2026-04-22 16:50 0.14748 -77.80503 15846 ft 268 kts 90°
2026-04-22 16:50 0.14751 -77.78644 15852 ft 267 kts 90°
2026-04-22 16:50 0.14755 -77.76784 15848 ft 268 kts 90°
2026-04-22 16:50 0.14758 -77.74925 15846 ft 268 kts 90°
2026-04-22 16:51 0.14762 -77.73083 15855 ft 270 kts 90°
2026-04-22 16:51 0.14766 -77.71213 15853 ft 268 kts 90°
2026-04-22 16:51 0.14768 -77.69351 15857 ft 269 kts 90°
2026-04-22 16:51 0.14772 -77.67478 15855 ft 270 kts 90°
2026-04-22 16:52 0.14773 -77.65604 15792 ft 270 kts 91°
2026-04-22 16:52 0.14392 -77.63789 15776 ft 267 kts 115°
2026-04-22 16:52 0.13455 -77.62201 15782 ft 265 kts 126°
2026-04-22 16:52 0.12417 -77.60675 15783 ft 267 kts 126°
2026-04-22 16:53 0.11396 -77.59159 15234 ft 258 kts 125°
2026-04-22 16:53 0.10500 -77.57806 15331 ft 227 kts 124°
2026-04-22 16:53 0.09606 -77.56458 15442 ft 239 kts 125°
2026-04-22 16:53 0.08664 -77.55048 15567 ft 248 kts 125°
2026-04-22 16:54 0.07691 -77.53590 15518 ft 259 kts 125°
2026-04-22 16:54 0.06672 -77.52061 15235 ft 270 kts 124°
2026-04-22 16:54 0.05618 -77.50479 14830 ft 276 kts 124°
2026-04-22 16:54 0.04547 -77.48871 14464 ft 279 kts 124°
2026-04-22 16:55 0.03476 -77.47263 14092 ft 276 kts 124°
2026-04-22 16:55 0.02435 -77.45701 13710 ft 272 kts 124°
2026-04-22 16:55 0.01391 -77.44135 13339 ft 270 kts 124°
2026-04-22 16:55 0.00354 -77.42578 12982 ft 268 kts 124°
2026-04-22 16:56 -0.00688 -77.41016 12625 ft 273 kts 124°
2026-04-22 16:56 -0.01741 -77.39436 12261 ft 273 kts 124°
2026-04-22 16:56 -0.02796 -77.37852 11901 ft 274 kts 124°
2026-04-22 16:56 -0.03849 -77.36271 11482 ft 273 kts 124°
2026-04-22 16:57 -0.04897 -77.34697 11123 ft 271 kts 124°
2026-04-22 16:57 -0.05913 -77.33172 10770 ft 256 kts 124°
2026-04-22 16:57 -0.06869 -77.31739 10440 ft 248 kts 124°
2026-04-22 16:57 -0.07820 -77.30311 10118 ft 246 kts 124°
2026-04-22 16:58 -0.08459 -77.29352 9890 ft 245 kts 124°
2026-04-22 16:58 -0.09700 -77.27491 9444 ft 242 kts 124°
2026-04-22 16:58 -0.10629 -77.26096 9127 ft 240 kts 124°
2026-04-22 16:58 -0.11553 -77.24709 8808 ft 239 kts 124°
2026-04-22 16:59 -0.12471 -77.23331 8494 ft 238 kts 124°
2026-04-22 16:59 -0.13388 -77.21956 8138 ft 237 kts 123°
2026-04-22 16:59 -0.14302 -77.20584 7823 ft 237 kts 123°
2026-04-22 16:59 -0.15200 -77.19237 7516 ft 235 kts 123°
2026-04-22 17:00 -0.16105 -77.17878 7203 ft 234 kts 123°
2026-04-22 17:00 -0.17900 -77.15184 6581 ft 232 kts 123°
2026-04-22 17:00 -0.18790 -77.13848 6265 ft 230 kts 123°
2026-04-22 17:01 -0.19675 -77.12520 5948 ft 229 kts 123°
2026-04-22 17:01 -0.20682 -77.11314 5632 ft 227 kts 141°
2026-04-22 17:01 -0.22011 -77.10567 5340 ft 211 kts 154°
2026-04-22 17:01 -0.23294 -77.09952 5067 ft 200 kts 154°
2026-04-22 17:02 -0.24512 -77.09358 4808 ft 196 kts 153°
2026-04-22 17:02 -0.25729 -77.08761 4544 ft 194 kts 153°
2026-04-22 17:02 -0.26911 -77.08181 3936 ft 193 kts 153°
2026-04-22 17:02 -0.28031 -77.07635 3946 ft 160 kts 153°
2026-04-22 17:03 -0.29060 -77.07129 3829 ft 165 kts 153°
2026-04-22 17:03 -0.30031 -77.06653 3632 ft 154 kts 152°
2026-04-22 17:03 -0.30991 -77.06188 3430 ft 152 kts 153°
2026-04-22 17:03 -0.31939 -77.05741 3228 ft 150 kts 152°
2026-04-22 17:04 -0.32872 -77.05282 3026 ft 148 kts 152°
2026-04-22 17:04 -0.33779 -77.04834 2834 ft 148 kts 152°
2026-04-22 17:04 -0.34676 -77.04393 2640 ft 144 kts 152°
2026-04-22 17:04 -0.35586 -77.03940 2451 ft 147 kts 152°
2026-04-22 17:05 -0.36463 -77.03518 2251 ft 134 kts 152°
2026-04-22 17:05 -0.37260 -77.03125 2107 ft 125 kts 152°
2026-04-22 17:05 -0.38030 -77.02743 2097 ft 124 kts 151°
2026-04-22 17:05 -0.38811 -77.02356 2096 ft 127 kts 151°
2026-04-22 17:06 -0.39601 -77.01971 1962 ft 123 kts 150°
2026-04-22 17:06 -0.40327 -77.01614 1820 ft 109 kts 152°
2026-04-22 17:06 -0.40968 -77.01299 1693 ft 99 kts 152°
2026-04-22 17:06 -0.41549 -77.01012 1573 ft 88 kts 152°
2026-04-22 17:07 -0.42090 -77.00746 1471 ft 87 kts 153°
2026-04-22 17:07 -0.42651 -77.00470 1360 ft 92 kts 153°
2026-04-22 17:07 -0.43219 -77.00190 1239 ft 88 kts 153°
2026-04-22 17:07 -0.43758 -76.99926 1119 ft 85 kts 152°
2026-04-22 17:08 -0.44304 -76.99659 1011 ft 90 kts 154°
2026-04-22 17:08 -0.44868 -76.99379 859 ft 89 kts 154°
2026-04-22 17:08 -0.45324 -76.99157 831 ft 41 kts 154°
2026-04-22 17:08 -0.45495 -76.99075 830 ft 17 kts 155°